Radiation Dose at Monitoring Post of Fukushima Daini Nuclear Power Station
Date,Time,MP-1(microSv/h),MP-2(microSv/h),MP-3(microSv/h),MP-4(microSv/h),MP-5(microSv/h),MP-6(microSv/h),MP-7(microSv/h),Wind Direction,Wind Velocity(m/s),Rain
2017/08/31,00:00,0.345,0.211,0.346,0.319,0.317,0.169,0.104,north-northwest,6.8,Yes
2017/08/31,00:10,0.342,0.212,0.343,0.322,0.314,0.169,0.104,north-northwest,6.4,Yes
2017/08/31,00:20,0.346,0.211,0.346,0.322,0.314,0.171,0.103,north-northwest,6.2,Yes
2017/08/31,00:30,0.343,0.213,0.342,0.321,0.315,0.170,0.104,north-northwest,5.6,No
2017/08/31,00:40,0.346,0.211,0.344,0.322,0.312,0.171,0.104,north-northwest,5.6,No
2017/08/31,00:50,0.344,0.212,0.345,0.320,0.316,0.171,0.104,north-northwest,5.1,No
2017/08/31,01:00,0.342,0.212,0.341,0.322,0.313,0.170,0.103,north-northwest,5.5,No
2017/08/31,01:10,0.346,0.211,0.346,0.321,0.314,0.170,0.101,north,7.0,No
2017/08/31,01:20,0.341,0.211,0.343,0.319,0.315,0.168,0.102,north,7.2,No
2017/08/31,01:30,0.344,0.211,0.344,0.322,0.311,0.168,0.102,north,7.5,Yes
2017/08/31,01:40,0.343,0.210,0.343,0.318,0.316,0.170,0.103,north,6.8,Yes
2017/08/31,01:50,0.343,0.210,0.343,0.322,0.314,0.169,0.101,north,6.5,No
2017/08/31,02:00,0.345,0.209,0.345,0.320,0.317,0.168,0.102,north,6.8,No
2017/08/31,02:10,0.342,0.211,0.342,0.320,0.315,0.169,0.102,north,6.8,No
2017/08/31,02:20,0.346,0.210,0.345,0.321,0.312,0.168,0.101,north,7.1,No
2017/08/31,02:30,0.341,0.210,0.343,0.319,0.316,0.168,0.102,north,7.3,No
2017/08/31,02:40,0.343,0.209,0.343,0.321,0.313,0.168,0.101,north,7.2,No
2017/08/31,02:50,0.343,0.211,0.346,0.320,0.315,0.169,0.102,north,7.3,Yes
2017/08/31,03:00,0.342,0.211,0.342,0.320,0.313,0.169,0.102,north,7.3,Yes
2017/08/31,03:10,0.346,0.212,0.346,0.322,0.312,0.168,0.102,north,7.8,No
2017/08/31,03:20,0.342,0.210,0.341,0.319,0.315,0.170,0.102,north,7.8,No
2017/08/31,03:30,0.343,0.209,0.346,0.323,0.311,0.170,0.102,north,8.0,No
2017/08/31,03:40,0.344,0.211,0.343,0.319,0.315,0.169,0.103,north,8.9,Yes
2017/08/31,03:50,0.342,0.210,0.344,0.319,0.314,0.170,0.101,north,9.9,Yes
2017/08/31,04:00,0.345,0.213,0.344,0.320,0.313,0.168,0.102,north,11.2,No
2017/08/31,04:10,0.341,0.210,0.342,0.320,0.315,0.169,0.102,north,10.8,No
2017/08/31,04:20,0.346,0.211,0.345,0.322,0.312,0.168,0.101,north,10.5,No
2017/08/31,04:30,0.342,0.209,0.343,0.319,0.316,0.168,0.102,north,9.7,No
2017/08/31,04:40,0.344,0.212,0.344,0.321,0.312,0.169,0.100,north,10.2,Yes
2017/08/31,04:50,0.342,0.209,0.342,0.321,0.314,0.168,0.102,north,10.1,No
2017/08/31,05:00,0.343,0.211,0.345,0.320,0.313,0.169,0.101,north,13.4,Yes
2017/08/31,05:10,0.344,0.210,0.343,0.321,0.314,0.168,0.101,north,11.2,No
2017/08/31,05:20,0.342,0.211,0.345,0.320,0.313,0.168,0.100,north,12.4,Yes
2017/08/31,05:30,0.346,0.210,0.345,0.322,0.314,0.168,0.101,north,11.7,No
2017/08/31,05:40,0.343,0.210,0.343,0.319,0.315,0.169,0.101,north,12.1,No
2017/08/31,05:50,0.345,0.210,0.345,0.321,0.314,0.169,0.101,north,13.9,No
2017/08/31,06:00,0.343,0.211,0.342,0.320,0.316,0.167,0.101,north,12.8,No
2017/08/31,06:10,0.345,0.210,0.346,0.322,0.312,0.168,0.101,north,11.3,No
2017/08/31,06:20,0.342,0.210,0.341,0.320,0.316,0.167,0.101,north,11.2,No
2017/08/31,06:30,0.346,0.210,0.345,0.321,0.313,0.169,0.101,north,11.8,No
2017/08/31,06:40,0.343,0.211,0.343,0.321,0.316,0.168,0.101,north,13.1,No
2017/08/31,06:50,0.345,0.209,0.345,0.320,0.313,0.169,0.101,north,13.2,No
2017/08/31,07:00,0.342,0.211,0.343,0.320,0.316,0.168,0.101,north,10.9,No
2017/08/31,07:10,0.344,0.209,0.346,0.321,0.312,0.167,0.100,north,9.9,No
2017/08/31,07:20,0.344,0.210,0.343,0.321,0.315,0.168,0.099,north,11.2,No
2017/08/31,07:30,0.345,0.209,0.346,0.320,0.313,0.167,0.100,north,9.9,No
2017/08/31,07:40,0.345,0.209,0.343,0.323,0.314,0.169,0.101,north,10.6,No
2017/08/31,07:50,0.342,0.210,0.345,0.318,0.313,0.167,0.100,north,9.4,Yes
2017/08/31,08:00,0.345,0.211,0.344,0.322,0.313,0.168,0.100,north,9.2,Yes
2017/08/31,08:10,0.343,0.211,0.347,0.320,0.313,0.169,0.100,north,9.6,Yes
2017/08/31,08:20,0.345,0.210,0.343,0.321,0.313,0.167,0.101,north,8.1,No
2017/08/31,08:30,0.344,0.210,0.344,0.319,0.314,0.169,0.102,north,8.9,Yes
2017/08/31,08:40,0.346,0.211,0.343,0.321,0.313,0.168,0.101,north,8.2,Yes
2017/08/31,08:50,0.341,0.208,0.344,0.320,0.315,0.169,0.101,north,7.0,Yes
2017/08/31,09:00,0.344,0.209,0.343,0.319,0.311,0.167,0.101,north,7.1,Yes
2017/08/31,09:10,0.337,0.207,0.341,0.317,0.313,0.167,0.099,north,7.5,Yes
2017/08/31,09:20,0.340,0.207,0.339,0.315,0.309,0.165,0.100,north,8.5,Yes
2017/08/31,09:30,0.339,0.207,0.340,0.316,0.312,0.166,0.100,north,8.4,Yes
2017/08/31,09:40,0.338,0.208,0.339,0.315,0.312,0.166,0.100,north,6.8,Yes
2017/08/31,09:50,0.338,0.208,0.338,0.316,0.311,0.166,0.100,north,7.7,Yes
2017/08/31,10:00,0.339,0.208,0.341,0.313,0.312,0.167,0.101,north,8.9,Yes
2017/08/31,10:10,0.340,0.207,0.338,0.317,0.310,0.166,0.102,north,8.1,Yes
2017/08/31,10:20,0.337,0.208,0.339,0.313,0.311,0.167,0.102,north,7.5,Yes
2017/08/31,10:30,0.340,0.208,0.336,0.315,0.310,0.167,0.101,north-northeast,5.6,Yes
2017/08/31,10:40,0.337,0.209,0.340,0.313,0.313,0.166,0.102,north,8.1,Yes
2017/08/31,10:50,0.340,0.208,0.338,0.316,0.310,0.167,0.101,north-northeast,6.7,Yes
2017/08/31,11:00,0.337,0.209,0.340,0.314,0.315,0.166,0.102,north,7.8,Yes
2017/08/31,11:10,0.340,0.209,0.338,0.316,0.312,0.168,0.102,north,7.1,Yes
2017/08/31,11:20,0.337,0.209,0.339,0.316,0.311,0.166,0.102,north,6.7,Yes
2017/08/31,11:30,0.340,0.209,0.337,0.313,0.313,0.167,0.103,north,6.6,Yes
2017/08/31,11:40,0.337,0.208,0.341,0.315,0.309,0.167,0.102,north-northwest,4.8,Yes
2017/08/31,11:50,0.339,0.209,0.338,0.314,0.314,0.168,0.104,north-northeast,7.8,Yes
2017/08/31,12:00,0.340,0.208,0.338,0.316,0.310,0.169,0.104,north-northeast,8.8,Yes
2017/08/31,12:10,0.340,0.211,0.339,0.314,0.316,0.168,0.104,northeast,10.4,Yes
2017/08/31,12:20,0.341,0.210,0.339,0.317,0.313,0.169,0.104,northeast,10.4,No
2017/08/31,12:30,0.339,0.210,0.340,0.315,0.314,0.168,0.103,northeast,9.5,No
2017/08/31,12:40,0.342,0.210,0.339,0.316,0.313,0.167,0.102,northeast,10.0,Yes
2017/08/31,12:50,0.337,0.210,0.340,0.317,0.311,0.166,0.103,north-northeast,10.1,Yes
2017/08/31,13:00,0.341,0.207,0.337,0.316,0.315,0.166,0.103,north-northeast,8.6,Yes
2017/08/31,13:10,0.339,0.209,0.340,0.318,0.310,0.167,0.102,north,6.7,No
2017/08/31,13:20,0.339,0.208,0.339,0.314,0.314,0.166,0.103,north,8.7,No
2017/08/31,13:30,0.340,0.209,0.340,0.317,0.311,0.166,0.101,north,9.2,No
2017/08/31,13:40,0.336,0.209,0.339,0.316,0.311,0.165,0.100,north,9.2,No
2017/08/31,13:50,0.341,0.206,0.337,0.315,0.313,0.164,0.100,north-northeast,10.5,Yes
2017/08/31,14:00,0.338,0.208,0.340,0.317,0.310,0.165,0.100,north,8.9,No
2017/08/31,14:10,0.338,0.207,0.337,0.314,0.312,0.165,0.100,north,9.3,No
2017/08/31,14:20,0.342,0.208,0.341,0.316,0.312,0.165,0.100,north,7.1,Yes
2017/08/31,14:30,0.338,0.207,0.339,0.316,0.311,0.165,0.100,north-northeast,9.5,Yes
2017/08/31,14:40,0.340,0.207,0.342,0.316,0.314,0.166,0.100,north,9.3,Yes
2017/08/31,14:50,0.339,0.209,0.340,0.318,0.312,0.164,0.101,north,9.5,No
2017/08/31,15:00,0.338,0.207,0.339,0.316,0.312,0.167,0.100,north,8.0,No
2017/08/31,15:10,0.341,0.208,0.342,0.318,0.313,0.165,0.101,north,8.6,No
2017/08/31,15:20,0.338,0.208,0.339,0.317,0.310,0.165,0.100,north,8.3,No
2017/08/31,15:30,0.341,0.208,0.343,0.316,0.313,0.166,0.100,north,8.1,No
2017/08/31,15:40,0.339,0.209,0.339,0.319,0.312,0.165,0.100,north,8.3,No
2017/08/31,15:50,0.339,0.206,0.341,0.314,0.311,0.166,0.100,north,7.3,No
2017/08/31,16:00,0.342,0.209,0.343,0.319,0.315,0.165,0.099,north,7.4,Yes
2017/08/31,16:10,0.339,0.208,0.341,0.317,0.310,0.166,0.100,north,8.9,Yes
2017/08/31,16:20,0.341,0.209,0.343,0.317,0.315,0.166,0.100,north,9.5,Yes
2017/08/31,16:30,0.339,0.209,0.339,0.318,0.311,0.164,0.100,north,8.9,Yes
2017/08/31,16:40,0.340,0.210,0.343,0.318,0.313,0.165,0.100,north,9.2,Yes
2017/08/31,16:50,0.341,0.208,0.340,0.320,0.312,0.166,0.101,north,8.1,Yes
2017/08/31,17:00,0.340,0.209,0.343,0.317,0.313,0.165,0.101,north,9.2,Yes
2017/08/31,17:10,0.342,0.209,0.341,0.320,0.313,0.168,0.100,north-northeast,7.4,Yes
2017/08/31,17:20,0.339,0.209,0.341,0.317,0.312,0.166,0.101,north,9.4,Yes
2017/08/31,17:30,0.344,0.208,0.343,0.318,0.314,0.167,0.100,north,8.3,Yes
2017/08/31,17:40,0.338,0.208,0.342,0.320,0.312,0.168,0.100,north,6.8,Yes
2017/08/31,17:50,0.342,0.210,0.342,0.317,0.316,0.166,0.101,north-northeast,8.7,Yes
2017/08/31,18:00,0.341,0.209,0.342,0.321,0.312,0.167,0.101,north,10.9,No
2017/08/31,18:10,0.341,0.209,0.342,0.318,0.314,0.166,0.101,north,8.7,No
2017/08/31,18:20,0.343,0.208,0.341,0.320,0.313,0.167,0.100,north,9.2,Yes
2017/08/31,18:30,0.339,0.209,0.344,0.317,0.313,0.166,0.101,north,10.0,Yes
2017/08/31,18:40,0.342,0.209,0.341,0.320,0.313,0.167,0.101,north,8.9,Yes
2017/08/31,18:50,0.340,0.209,0.343,0.318,0.313,0.168,0.101,north,9.5,Yes
2017/08/31,19:00,0.342,0.210,0.341,0.319,0.316,0.166,0.101,north,9.9,Yes
2017/08/31,19:10,0.341,0.209,0.342,0.320,0.311,0.167,0.101,north,9.4,Yes
2017/08/31,19:20,0.344,0.208,0.340,0.318,0.316,0.166,0.101,north,9.5,No
2017/08/31,19:30,0.341,0.210,0.342,0.320,0.312,0.167,0.100,north,10.1,No
2017/08/31,19:40,0.342,0.209,0.342,0.318,0.316,0.167,0.101,north,10.1,No
2017/08/31,19:50,0.343,0.209,0.342,0.319,0.312,0.167,0.100,north,12.1,No
2017/08/31,20:00,0.341,0.209,0.342,0.317,0.313,0.166,0.101,north,10.7,No
2017/08/31,20:10,0.343,0.209,0.341,0.320,0.312,0.167,0.101,north,11.4,No
2017/08/31,20:20,0.340,0.208,0.343,0.318,0.312,0.168,0.101,north,8.9,No
2017/08/31,20:30,0.343,0.209,0.341,0.320,0.312,0.166,0.101,north,10.1,No
2017/08/31,20:40,0.340,0.209,0.342,0.318,0.313,0.167,0.100,north,10.3,No
2017/08/31,20:50,0.343,0.209,0.341,0.320,0.314,0.166,0.100,north,10.6,No
2017/08/31,21:00,0.341,0.208,0.343,0.319,0.311,0.167,0.100,north-northwest,9.5,No
2017/08/31,21:10,0.341,0.210,0.340,0.318,0.314,0.167,0.101,north,10.5,No
2017/08/31,21:20,0.340,0.208,0.343,0.321,0.310,0.167,0.102,north,11.3,No
2017/08/31,21:30,0.342,0.210,0.340,0.317,0.313,0.168,0.100,north-northwest,10.7,No
2017/08/31,21:40,0.341,0.208,0.344,0.321,0.311,0.166,0.101,north,9.7,No
2017/08/31,21:50,0.342,0.211,0.341,0.317,0.313,0.167,0.101,north-northwest,8.9,No
2017/08/31,22:00,0.344,0.209,0.344,0.320,0.312,0.167,0.101,north-northwest,9.9,No
2017/08/31,22:10,0.341,0.209,0.344,0.319,0.314,0.167,0.101,north-northwest,10.3,No
2017/08/31,22:20,0.343,0.209,0.342,0.321,0.312,0.166,0.101,north-northwest,9.6,No
2017/08/31,22:30,0.341,0.210,0.343,0.319,0.313,0.167,0.101,north,10.3,No
2017/08/31,22:40,0.345,0.209,0.342,0.320,0.311,0.167,0.101,north,10.3,Yes
2017/08/31,22:50,0.341,0.210,0.342,0.319,0.313,0.167,0.102,north,11.0,Yes
2017/08/31,23:00,0.344,0.210,0.344,0.319,0.314,0.168,0.102,north,11.8,Yes
2017/08/31,23:10,0.343,0.210,0.342,0.321,0.313,0.167,0.101,north,11.3,Yes
2017/08/31,23:20,0.345,0.209,0.343,0.320,0.313,0.167,0.102,north-northwest,11.0,Yes
2017/08/31,23:30,0.342,0.209,0.345,0.320,0.313,0.167,0.101,north,10.1,Yes
2017/08/31,23:40,0.343,0.209,0.342,0.320,0.313,0.168,0.101,north,11.5,Yes
2017/08/31,23:50,0.342,0.210,0.345,0.320,0.314,0.168,0.101,north-northwest,11.2,Yes
